Lancaster, PA

9:28 AM EDT on April 26, 2017 (GMT -0400)
Lancaster

Weather History for KLNS - August, 2013

Change the Weather History Date:

Wednesday, August 28, 2013

  Actual Average Record
Temperature  
Mean Temperature 74 °F -  
Max Temperature 79 °F 84 °F 94 °F (1993)
Min Temperature 70 °F 63 °F 53 °F (2010)
Cooling Degree Days 9    
Growing Degree Days 24 (Base 50)    
Moisture  
Dew Point 70 °F    
Average Humidity 90    
Maximum Humidity 100    
Minimum Humidity 74    
Precipitation  
Precipitation 0.21 in - - ()
Sea Level Pressure  
Sea Level Pressure 29.87 in    
Wind  
Wind Speed 2 mph (NE)    
Max Wind Speed 8 mph    
Max Gust Speed -    
Visibility 4 miles    
Events Rain    
Averages and records for this station are not official NWS values.
T = Trace of Precipitation, MM = Missing Value Source: NWS Daily Summary

Daily Weather History Graph

Daily Weather History Graph

Search for Another Location

Airport or City:

Trip Planner

Search our weather history database for the weather conditions in past years. The results will help you decide how hot, cold, wet, or windy it might be!

Date:

Astronomy

Aug. 28, 2013 Rise Set
Actual Time 6:29 AM EDT 7:42 PM EDT
Civil Twilight 6:01 AM EDT 8:10 PM EDT
Nautical Twilight 5:27 AM EDT 8:44 PM EDT
Astronomical Twilight 4:52 AM EDT 9:19 PM EDT
Moon No Moon Rise 2:18 PM EDT (8/28)
Length of Visible Light 14h 09m
Length of Day
13h 13m
Waning Gibbous, 47% of the Moon is Illuminated
Aug 28
Waning Gibbous
Sep 5
New
Sep 12
First Quarter
Sep 19
Full
Sep 26
Last Quarter

Hourly Weather History & Observations

Time (EDT) Temp. Dew Point Humidity Pressure Visibility Wind Dir Wind Speed Gust Speed Precip Events Conditions
12:53 AM 71.1 °F 68.0 °F 90% 29.90 in 6.0 mi Calm Calm - N/A   Clear
1:53 AM 71.1 °F 69.1 °F 93% 29.88 in 4.0 mi Calm Calm - N/A   Mostly Cloudy
2:53 AM 72.0 °F 68.0 °F 87% 29.87 in 5.0 mi Calm Calm - N/A   Partly Cloudy
3:53 AM 70.0 °F 68.0 °F 93% 29.87 in 4.0 mi Calm Calm - N/A   Clear
4:53 AM 70.0 °F 68.0 °F 93% 29.87 in 3.0 mi Calm Calm - N/A   Clear
5:53 AM 70.0 °F 68.0 °F 93% 29.88 in 4.0 mi Calm Calm - N/A   Partly Cloudy
6:53 AM 71.1 °F 68.0 °F 90% 29.88 in 4.0 mi Calm Calm - N/A   Overcast
7:16 AM 71.6 °F 69.8 °F 94% 29.89 in 3.0 mi West 3.5 mph - N/A   Overcast
7:26 AM 71.6 °F 69.8 °F 94% 29.89 in 3.0 mi West 3.5 mph - N/A   Mostly Cloudy
7:53 AM 72.0 °F 69.1 °F 91% 29.88 in 3.0 mi West 4.6 mph - 0.00 in Rain Light Rain
8:53 AM 73.0 °F 70.0 °F 90% 29.89 in 3.0 mi WNW 4.6 mph - 0.00 in   Overcast
9:03 AM 73.4 °F 69.8 °F 88% 29.90 in 2.5 mi West 4.6 mph - 0.00 in Rain Light Rain
9:15 AM 73.4 °F 69.8 °F 88% 29.90 in 3.0 mi West 4.6 mph - 0.00 in Rain Light Rain
9:26 AM 73.4 °F 71.6 °F 94% 29.90 in 1.8 mi West 3.5 mph - 0.00 in Rain Light Rain
9:35 AM 73.4 °F 71.6 °F 94% 29.89 in 1.5 mi Calm Calm - 0.00 in Rain Light Rain
9:44 AM 73.4 °F 71.6 °F 94% 29.89 in 2.5 mi Calm Calm - 0.00 in Rain Light Rain
9:53 AM 73.9 °F 71.1 °F 91% 29.88 in 2.5 mi Calm Calm - 0.00 in   Overcast
10:04 AM 73.4 °F 71.6 °F 94% 29.89 in 3.0 mi Calm Calm - N/A   Overcast
10:49 AM 75.2 °F 71.6 °F 89% 29.89 in 4.0 mi Calm Calm - N/A   Overcast
10:53 AM 75.9 °F 71.1 °F 85% 29.88 in 4.0 mi Calm Calm - N/A   Haze
11:48 AM 77.0 °F 71.6 °F 83% 29.89 in 5.0 mi Calm Calm - N/A   Haze
11:53 AM 78.1 °F 72.0 °F 81% 29.88 in 5.0 mi Variable 3.5 mph - N/A   Haze
12:17 PM 78.8 °F 71.6 °F 78% 29.87 in 5.0 mi Calm Calm - N/A   Haze
12:44 PM 78.8 °F 69.8 °F 74% 29.87 in 1.8 mi Calm Calm - 0.02 in Rain Heavy Rain
12:46 PM 77.0 °F 71.6 °F 83% 29.87 in 3.0 mi Calm Calm - 0.03 in Rain Heavy Rain
12:53 PM 75.9 °F 71.1 °F 85% 29.86 in 3.0 mi North 3.5 mph - 0.05 in Rain Heavy Rain
1:53 PM 78.1 °F 72.0 °F 81% 29.85 in 4.0 mi East 4.6 mph - 0.03 in   Haze
2:53 PM 78.1 °F 73.0 °F 84% 29.84 in 4.0 mi ENE 6.9 mph - N/A   Haze
3:53 PM 75.9 °F 72.0 °F 87% 29.83 in 4.0 mi East 6.9 mph - N/A   Overcast
4:00 PM 75.2 °F 71.6 °F 89% 29.83 in 4.0 mi ENE 8.1 mph - N/A   Overcast
4:53 PM 73.9 °F 70.0 °F 87% 29.84 in 5.0 mi ENE 5.8 mph - 0.02 in Rain Light Rain
5:06 PM 73.4 °F 69.8 °F 88% 29.85 in 2.5 mi NE 4.6 mph - 0.03 in Rain Rain
5:13 PM 73.4 °F 69.8 °F 88% 29.85 in 3.0 mi NE 5.8 mph - 0.04 in Rain Light Rain
5:33 PM 73.4 °F 71.6 °F 94% 29.84 in 1.8 mi NE 8.1 mph - 0.09 in Rain Heavy Rain
5:46 PM 73.4 °F 71.6 °F 94% 29.84 in 2.5 mi NE 6.9 mph - 0.10 in Rain Light Rain
5:53 PM 73.0 °F 71.1 °F 93% 29.83 in 3.0 mi ENE 5.8 mph - 0.10 in Rain Light Rain
6:53 PM 73.0 °F 71.1 °F 93% 29.84 in 3.0 mi ESE 4.6 mph - 0.00 in Rain Light Rain
7:06 PM 73.4 °F 71.6 °F 94% 29.85 in 3.0 mi East 4.6 mph - 0.00 in Rain Light Rain
7:53 PM 72.0 °F 71.1 °F 97% 29.85 in 6.0 mi Calm Calm - 0.01 in   Overcast
8:09 PM 71.6 °F 71.6 °F 100% 29.86 in 5.0 mi Calm Calm - N/A   Overcast
8:53 PM 72.0 °F 70.0 °F 93% 29.86 in 4.0 mi Calm Calm - N/A   Overcast
9:25 PM 71.6 °F 69.8 °F 94% 29.87 in 4.0 mi Calm Calm - N/A   Overcast
9:42 PM 71.6 °F 69.8 °F 94% 29.88 in 3.0 mi Calm Calm - N/A   Overcast
9:53 PM 72.0 °F 70.0 °F 93% 29.88 in 3.0 mi Calm Calm - N/A   Overcast
10:17 PM 71.6 °F 69.8 °F 94% 29.89 in 3.0 mi Calm Calm - N/A   Overcast
10:39 PM 71.6 °F 69.8 °F 94% 29.89 in 4.0 mi East 3.5 mph - N/A   Overcast
10:53 PM 71.1 °F 70.0 °F 96% 29.88 in 4.0 mi ESE 3.5 mph - N/A   Overcast
11:53 PM 70.0 °F 69.1 °F 97% 29.88 in 3.0 mi Calm Calm - N/A   Scattered Clouds